Location: Cluj-Napoca
(46.7712°N, 23.6236°E)
Time: 06:43:38
(UTC+02:00)

ISS - Pass Details

Date: 20 January 2021
Orbit: 418 x 421 km, 51.6° (Epoch: 23 January)

Event Time Altitude Azimuth Distance (km) Brightness Sun altitude
Rises 18:04:52 0° 202° (SSW) 2,356 0.7 -9.2°
Reaches altitude 10° 18:07:21 10° 184° (S) 1,497 -0.6 -9.6°
Maximum altitude 18:09:47 19° 137° (SE) 1,076 -1.9 -10.0°
Enters shadow 18:11:40 13° 98° (E) 1,342 -1.7 -10.3°
